FW6606 Weather Reports


time (UTC)temp
F
wind
direction
speed
knots
gust
knots
rain 1hr
in
rain 24hr
in
rain mn
in
humidity
%
barometer
mb
20260510220100 81 265 1.7 4.3 0.00 0.09 0.00 77 1016.2
20260510214551 81 280 1.7 5.2 0.00 0.10 0.00 78 1016.4
20260510213115 82 311 0.9 6.1 0.00 0.10 0.00 78 1016.2
20260510211555 82 285 1.7 7.0 0.00 0.10 0.00 77 1016.3
20260510210053 84 243 0.9 6.1 0.00 0.10 0.00 75 1016.1
20260510204612 83 303 1.7 5.2 0.00 0.11 0.00 77 1016.0
20260510203056 83 66 0.9 5.2 0.00 0.11 0.00 75 1016.1
20260510201600 84 294 1.7 5.2 0.00 0.11 0.00 73 1016.1
20260510200055 83 255 0.0 4.3 0.00 0.11 0.00 76 1016.0
20260510194609 83 103 0.0 7.0 0.00 0.11 0.00 78 1016.2
20260510193057 84 23 0.0 7.0 0.00 0.11 0.00 77 1016.2
20260510191558 84 282 0.9 4.3 0.00 0.11 0.00 76 1016.3
20260510190105 81 231 0.9 3.5 0.00 0.11 0.00 81 1016.7
20260510184605 82 168 1.7 5.2 0.00 0.11 0.00 80 1016.9
20260510183104 83 0 0.0 4.3 0.00 0.11 0.00 80 1017.1
20260510181614 86 0 0.0 0.9 0.00 0.11 0.00 73 1017.1
20260510180059 86 0 0.0 1.7 0.00 0.11 0.00 74 1017.3
20260510174614 86 0 0.0 1.7 0.00 0.11 0.00 71 1017.4
20260510173054 85 0 0.9 2.6 0.00 0.11 0.00 69 1017.5
20260510171619 86 271 0.0 1.7 0.00 0.11 0.00 70 1017.5
20260510170054 86 274 0.0 1.7 0.00 0.11 0.00 68 1017.7
20260510164600 85 0 0.0 0.9 0.00 0.24 0.00 72 1017.7
20260510163057 85 0 0.0 2.6 0.00 0.24 0.00 75 1017.8
20260510161553 83 0 0.9 3.5 0.00 0.24 0.00 75 1017.6
20260510160051 83 0 0.0 1.7 0.00 0.24 0.00 78 1017.6
20260510154553 82 0 0.0 3.5 0.00 0.68 0.00 81 1017.7
20260510153059 82 0 0.0 0.0 0.00 0.68 0.00 82 1017.5
20260510151553 81 0 0.0 0.9 0.00 0.68 0.00 81 1017.7
20260510150056 80 0 0.0 0.9 0.00 0.68 0.00 85 1017.8
20260510144602 79 0 0.0 0.9 0.00 0.68 0.00 86 1017.7
20260510143054 76 306 0.0 0.9 0.00 0.68 0.00 94 1017.8
20260510141553 73 0 0.0 0.9 0.00 0.68 0.00 100 1017.9
20260510140053 72 0 0.0 0.9 0.00 0.68 0.00 100 1017.8
20260510134551 71 0 0.0 0.9 0.00 0.68 0.00 100 1017.7
20260510133053 70 0 0.0 0.0 0.00 0.68 0.00 100 1017.7
20260510131553 69 0 0.0 0.0 0.00 0.68 0.00 100 1017.7
20260510130055 68 0 0.0 0.9 0.00 0.68 0.00 100 1017.5
20260510124557 67 0 0.0 0.9 0.00 0.68 0.00 100 1017.2
20260510123054 66 0 0.0 0.0 0.00 0.68 0.00 100 1017.1
20260510121555 65 0 0.0 0.0 0.00 0.68 0.00 100 1016.7
20260510120053 64 0 0.0 0.0 0.00 0.68 0.00 100 1016.5
20260510114620 64 0 0.0 0.0 0.00 0.69 0.00 100 1016.3
20260510113100 64 0 0.0 0.0 0.00 0.69 0.00 100 1016.0
20260510111555 64 0 0.0 0.0 0.00 0.69 0.00 100 1015.8
20260510110100 64 0 0.0 0.0 0.00 0.69 0.00 100 1015.7
20260510104554 64 0 0.0 0.0 0.00 0.69 0.00 100 1015.5
20260510103056 64 0 0.0 0.0 0.00 0.69 0.00 100 1015.4
20260510101603 64 0 0.0 0.0 0.00 0.69 0.00 100 1015.1
20260510100059 64 0 0.0 0.0 0.00 0.69 0.00 100 1015.0
20260510094556 64 0 0.0 0.0 0.00 0.69 0.00 100 1014.9
20260510093050 65 0 0.0 0.0 0.00 0.69 0.00 100 1014.7
20260510091551 65 0 0.0 0.0 0.00 0.69 0.00 100 1014.5
20260510090052 65 0 0.0 0.0 0.00 0.69 0.00 100 1014.2
20260510084609 65 0 0.0 0.0 0.00 0.69 0.00 100 1014.1
20260510083053 65 0 0.0 0.0 0.00 0.69 0.00 100 1014.0
20260510081556 66 0 0.0 0.0 0.00 0.69 0.00 100 1013.7
20260510080100 66 0 0.0 0.0 0.00 0.69 0.00 100 1013.5
20260510074557 65 0 0.0 0.0 0.00 0.70 0.00 100 1013.3
20260510073058 66 0 0.0 0.0 0.00 0.70 0.00 100 1013.3
20260510071553 66 0 0.0 0.0 0.00 0.70 0.00 100 1013.2
20260510070107 65 0 0.0 0.0 0.00 0.70 0.00 100 1013.3
20260510064556 66 0 0.0 0.0 0.00 0.70 0.00 100 1013.3
20260510063050 66 0 0.0 0.0 0.00 0.70 0.00 100 1013.6
20260510061552 66 0 0.0 0.0 0.00 0.70 0.00 100 1013.7
20260510060053 66 0 0.0 0.0 0.00 0.70 0.00 100 1013.9
20260510054551 66 0 0.0 0.0 0.00 0.71 0.00 100 1014.1
20260510053053 66 0 0.0 0.0 0.01 0.71 0.00 100 1014.1
20260510051605 67 0 0.0 0.0 0.01 0.71 0.00 100 1014.5
20260510050106 67 0 0.0 0.0 0.01 0.71 0.00 100 1014.4
20260510044554 67 275 0.0 0.0 0.02 0.71 0.71 100 1014.0
20260510043054 67 0 0.0 0.0 0.01 0.70 0.70 100 1014.1
20260510041553 67 0 0.0 0.0 0.01 0.70 0.70 100 1014.7
20260510034555 68 0 0.0 0.0 0.00 0.69 0.69 100 1014.9
20260510033100 68 0 0.0 0.9 0.00 0.69 0.69 100 1014.7
20260510031555 68 0 0.0 0.0 0.00 0.69 0.69 100 1014.6
20260510024554 68 0 0.0 0.0 0.00 0.70 0.69 100 1014.2
20260510023052 68 0 0.0 0.0 0.00 0.70 0.69 100 1014.0
20260510021641 68 0 0.0 0.0 0.00 0.70 0.69 100 1014.0
20260510020059 68 0 0.0 0.0 0.00 0.70 0.69 100 1013.8
20260510014558 68 0 0.0 0.0 0.01 0.71 0.69 100 1013.8
20260510013107 68 0 0.0 0.0 0.02 0.71 0.69 100 1014.1
20260510011556 68 0 0.0 0.0 0.02 0.71 0.69 100 1014.5
20260510010059 68 0 0.0 0.9 0.02 0.71 0.69 100 1014.3
20260510004555 68 0 0.0 0.9 0.02 0.73 0.68 100 1014.6
20260510003054 68 0 0.0 0.0 0.01 0.72 0.67 100 1013.6
20260510001603 68 0 0.0 1.7 0.02 0.72 0.67 100 1013.2
20260510000054 69 0 0.0 0.0 0.02 0.72 0.67 100 1012.5
20260509234628 69 0 0.0 0.0 0.02 0.74 0.66 100 1013.0
20260509233051 69 0 0.0 0.0 0.03 0.74 0.66 100 1013.3
20260509231553 69 0 0.0 0.0 0.03 0.73 0.65 100 1013.1
20260509230054 70 0 0.0 0.0 0.03 0.73 0.65 100 1013.5
20260509224553 70 0 0.0 0.0 0.03 0.72 0.64 100 1013.5
20260509223054 70 0 0.0 0.0 0.02 0.71 0.63 100 1013.3
20260509221553 70 0 0.0 0.0 0.01 0.70 0.62 100 1013.2